Погода в Компанеевке

Украина / Кировоградская область     48°15′11″N   32°12′19″E
темп.,
°C
ветер,
м/с
пор.,
м/с
влажн.,
%
обл.,
%
осадки,
мм/ч
давл.,
гПа
погр.,
м
8 марта, пн
пн823:00−1зюз6136764 0.0 1017311
02:00−1зюз5116645 0.0 1015246
05:00−3зюз4107836 0.0 1014202
08:00−1зюз6127236 0.0 1013438
11:00+2з697624 0.0 1013869
14:00+1зсз688050 0.1 1012877
17:00+1зсз488099 0.1 1013699
20:00−1зсз3108699 0.1 1014459
9 марта, вт
вт923:00−3сз5118247 0.0 1016477
02:00−4сз5107623 0.0 1017484
05:00−5сз59750 0.0 1018519
08:00−4сз58720 0.0 1020704
11:00−2сз576117 0.0 10211138
14:00−1сз565854 0.0 10211351
17:00−1сз4564100 0.1 10221082
20:00−3ссв3675100 0.1 1024394
10 марта, ср
ср1023:00−4ссв356924 0.0 1025480
02:00−5ссв246312 0.0 1026413
05:00−6св346712 0.0 1026319
08:00−5всв346536 0.0 1027429
11:00−3в3449100 0.0 1027741
14:00−2в3340100 0.0 10271009
17:00−2в3446100 0.0 1025953
20:00−3всв365698 0.0 1027280
11 марта, чт
чт1123:00−3всв355399 0.0 1027336
02:00−4св355888 0.0 1028202
05:00−4всв365788 0.0 1028301
08:00−3в455192 0.0 1029413
11:00−1вюв443746 0.0 10291023
14:000вюв333473 0.0 10281255
17:000вюв234548 0.0 1027150
20:00−2вюв335424 0.0 102878
12 марта, пт
пт1223:00−3юв37620 0.0 1029280
02:00−3ююв58621 0.0 1029443
05:00−4ююв695888 0.0 1029470
08:00−3ююв6105294 0.0 1029551
11:00−1ююв81043100 0.0 10281029
14:00+1ю8113799 0.0 10271236
17:00+1ююв7114491 0.0 10251108
20:00−1ююв9135794 0.0 1025913